This is the latest recevied weather packets stored in our database for station/object N7MLR. If no packets are shown the sender has not sent any weather packets the latest 10 day(s).
| Time | Temp. | Humidity | Pressure | Rain* | Wind** | Luminosity | Snow |
|---|---|---|---|---|---|---|---|
| 1778187678 | 19.44° C | 65% | 1015.9 hPa | 0 mm | - | 91 W/m² | - |
| 1778187375 | 19.44° C | 66% | 1015.3 hPa | 0 mm | - | 178 W/m² | - |
| 1778187071 | 20° C | 66% | 1015.4 hPa | 0 mm | - | 193 W/m² | - |
| 1778186768 | 19.44° C | 65% | 1015.5 hPa | 0 mm | - | 217 W/m² | - |
| 1778186465 | 20° C | 65% | 1015.7 hPa | 0 mm | - | 227 W/m² | - |
| 1778186163 | 19.44° C | 67% | 1015.8 hPa | 0 mm | - | 239 W/m² | - |
| 1778185860 | 19.44° C | 66% | 1016.1 hPa | 0 mm | - | 246 W/m² | - |
| 1778185556 | 20° C | 67% | 1015.9 hPa | 0 mm | - | 225 W/m² | - |
| 1778185252 | 19.44° C | 66% | 1015.3 hPa | 0 mm | - | 261 W/m² | - |
| 1778184948 | 19.44° C | 65% | 1015.3 hPa | 0 mm | - | 248 W/m² | - |
| 1778184644 | 19.44° C | 66% | 1015 hPa | 0 mm | - | 402 W/m² | - |
| 1778184340 | 18.89° C | 67% | 1015.3 hPa | 0 mm | - | 432 W/m² | - |
| 1778184036 | 19.44° C | 68% | 1015.5 hPa | 0 mm | - | 316 W/m² | - |
| 1778183734 | 20° C | 68% | 1015.6 hPa | 0 mm | - | 356 W/m² | - |
| 1778183431 | 19.44° C | 71% | 1016 hPa | 0 mm | - | 626 W/m² | - |
| 1778183127 | 18.89° C | 71% | 1016 hPa | 0 mm | - | 384 W/m² | - |
| 1778182823 | 18.89° C | 71% | 1016 hPa | 0 mm | - | 377 W/m² | - |
| 1778182521 | 18.33° C | 71% | 1016.2 hPa | 0 mm | - | 285 W/m² | - |
| 1778182217 | 18.33° C | 72% | 1016.4 hPa | 0 mm | - | 210 W/m² | - |
| 1778181914 | 19.44° C | 72% | 1016.3 hPa | 0 mm | - | 195 W/m² | - |
| 1778181611 | 18.89° C | 72% | 1016.1 hPa | 0 mm | - | 399 W/m² | - |
| 1778181306 | 18.89° C | 73% | 1016.1 hPa | 0 mm | - | 378 W/m² | - |
| 1778181003 | 18.33° C | 76% | 1016.1 hPa | 0 mm | - | 346 W/m² | - |
| 1778180701 | 18.89° C | 75% | 1016.5 hPa | 0 mm | - | 311 W/m² | - |
| 1778180399 | 18.89° C | 75% | 1015.9 hPa | 0 mm | - | 450 W/m² | - |
* Rain latest hour (hover to see other rain measurements)
** Current wind speed in m/s (hover to see current wind gust speed)